{"data":{"norad_id":57832,"intl_designator":"2023-139C","name":"YAOGAN-40 01B","alt_names":[],"object_type":"PAYLOAD","status":"ACTIVE","operator":null,"country":"PRC","launch_date":"2023-09-10","launch_site_code":"TAISC","launch_vehicle":null,"mission":null,"orbit_class":"UNKNOWN","rcs_meters":null,"size_class":null,"mass_kg":null,"dimensions":null,"purposes":[],"wikipedia_slug":null,"has_3d_model":false,"image_url":null,"decayed_at":null,"tle_current":{"epoch":"2026-09-22T23:40:40.039392Z","epoch_age_seconds":94052,"freshness":"FRESH","line1":"1 57832U 23139C   26265.98657453  .00000120  00000+0  54746-4 0  9993","line2":"2 57832  85.9933 216.0416 0001969  87.3299 272.8110 14.12464429156513","mean_motion":14.12464429,"eccentricity":0.0001969,"inclination_deg":85.9933,"raan_deg":216.0416,"arg_perigee_deg":87.3299,"mean_anomaly_deg":272.811,"bstar":5.4746e-5,"rev_number":15651,"period_min":101.94947004927,"perigee_km":849.52731825759,"apogee_km":852.37413300394,"semimajor_km":7229.0877256308,"source":"CELESTRAK","updated_at":"2026-09-23T09:00:18.390598Z"}}}